Regional Weather Roundup
Issued by NWS

Home | Current Version | Previous Version | Text Only | Print | Product List | Glossary On
Versions: 1 2 3 4 5 6 7 8 9 10 11 12 13 14 15 16 17 18 19 20 21 22 23 24 25 26 27 28 29 30 31 32 33 34 35 36 37 38 39 40 41 42 43 44 45 46 47 48 49 50
138
ASUS45 KCYS 260710
RWRWY

WYOMING REGIONAL WEATHER ROUNDUP
NATIONAL WEATHER SERVICE CHEYENNE WY
100 AM MDT WED JUL 26 2017

NOTE:  "FAIR" INDICATES FEW OR NO CLOUDS BELOW 12,000 FEET
WITH NO SIGNIFICANT WEATHER AND/OR OBSTRUCTIONS TO VISIBILITY.

WYZ001-260800-
YELLOWSTONE NATIONAL PARK

CITY           SKY/WX    TMP DP  RH WIND       PRES   REMARKS
LK YELLOWSTONE   N/A     43  43 100 CALM      30.41R
W YELLOWSTONE  NOT AVBL

$$
WYZ002>013-054>058-071-098>099-260800-
NORTHERN WYOMING

CITY           SKY/WX    TMP DP  RH WIND       PRES   REMARKS
JACKSON        CLOUDY    55  54  94 CALM      30.31S
CODY           FAIR      59  54  83 SW5       30.22S
GREYBULL       FAIR      59  52  77 E5        30.17R
WORLAND        FAIR      57  50  77 SE8       30.18R
SHERIDAN       FAIR      59  56  89 N5        30.14R
BUFFALO        MOCLDY    63  55  75 S13       30.21S
GILLETTE       CLOUDY    64  60  87 S6        30.17S
HULETT         FAIR      63  61  94 CALM      30.19R
NEWCASTLE      LGT RAIN  64  59  82 NW6       30.16R

$$
WYZ014>020-022>026-101>103-260800-
CENTRAL WYOMING

CITY           SKY/WX    TMP DP  RH WIND       PRES   REMARKS
BIG PINEY      CLOUDY    57  55  93 SW3       30.34R
PINEDALE       CLOUDY    54  48  82 NW5       30.35R
DUBOIS         FAIR      50  43  76 NW8       30.36S
LANDER         CLOUDY    65  52  62 NW3       30.25S
RIVERTON       CLOUDY    64  54  69 SE3       30.26R
CASPER         FAIR      60  57  89 NE6       30.23F
DOUGLAS        CLOUDY    62  60  93 CALM      30.22S

$$
WYZ021-027>030-104>119-260800-
SOUTHERN WYOMING

CITY           SKY/WX    TMP DP  RH WIND       PRES   REMARKS
EVANSTON       CLOUDY    59  54  83 S3        30.32R
KEMMERER         N/A    N/A N/A N/A N10       30.34S
FORT BRIDGER   FAIR      58  51  79 W7        30.33S
ROCK SPRINGS   MOCLDY    58  54  86 E3        30.31F
RAWLINS        LGT RAIN  58  56  93 NE9       30.30F FOG
SARATOGA       RAIN      59  59 100 NW6       30.31S
LARAMIE        CLOUDY    58  56  93 NW3       30.32F
CHEYENNE       FAIR      62  54  74 NW7       30.24F
TORRINGTON     CLOUDY    69  62  78 NW10      30.12S
PINE BLUFFS    FAIR      64  55  72 NW12      30.18R

$$




USA.gov is the U.S. government's official web portal to all federal, state and local government web resources and services.